This is the latest recevied weather packets stored in our database for station/object KK7RJD. If no packets are shown the sender has not sent any weather packets the latest 10 day(s).
| Time | Temp. | Humidity | Pressure | Rain* | Wind** | Luminosity | Snow |
|---|---|---|---|---|---|---|---|
| 1777904671 | 8.33° C | 52% | 1013.5 hPa | 0 mm | - | 154 W/m² | - |
| 1777904368 | 8.33° C | 52% | 1013.6 hPa | 0 mm | - | 125 W/m² | - |
| 1777904065 | 8.33° C | 52% | 1013.7 hPa | 0 mm | - | 122 W/m² | - |
| 1777903762 | 8.33° C | 52% | 1013.6 hPa | 0 mm | - | 121 W/m² | - |
| 1777903458 | 8.33° C | 52% | 1013.6 hPa | 0 mm | - | 169 W/m² | - |
| 1777903154 | 7.78° C | 53% | 1013.5 hPa | 0 mm | - | 181 W/m² | - |
| 1777902850 | 7.78° C | 52% | 1013.7 hPa | 0 mm | - | 110 W/m² | - |
| 1777902549 | 7.78° C | 52% | 1013.4 hPa | 0 mm | - | 102 W/m² | - |
| 1777902245 | 7.78° C | 52% | 1013.3 hPa | 0 mm | - | 97 W/m² | - |
| 1777901943 | 7.78° C | 52% | 1013 hPa | 0 mm | - | 93 W/m² | - |
| 1777901641 | 7.78° C | 52% | 1012.7 hPa | 0 mm | - | 88 W/m² | - |
| 1777901337 | 7.78° C | 52% | 1012.8 hPa | 0 mm | - | 86 W/m² | - |
| 1777901035 | 7.78° C | 52% | 1012.5 hPa | 0 mm | - | 83 W/m² | - |
| 1777900733 | 7.78° C | 52% | 1012.4 hPa | 0 mm | - | 77 W/m² | - |
| 1777900429 | 7.78° C | 51% | 1012.4 hPa | 0 mm | - | 70 W/m² | - |
| 1777900126 | 7.78° C | 51% | 1012.3 hPa | 0 mm | - | 61 W/m² | - |
| 1777899823 | 7.78° C | 51% | 1012 hPa | 0 mm | - | 55 W/m² | - |
| 1777899520 | 7.78° C | 51% | 1011.9 hPa | 0 mm | - | 49 W/m² | - |
| 1777899217 | 7.78° C | 51% | 1011.9 hPa | 0 mm | - | 45 W/m² | - |
| 1777898915 | 7.78° C | 52% | 1011.7 hPa | 0 mm | - | 41 W/m² | - |
| 1777898612 | 7.78° C | 51% | 1011.7 hPa | 0 mm | - | 36 W/m² | - |
| 1777898309 | 7.78° C | 51% | 1011.3 hPa | 0 mm | - | 30 W/m² | - |
| 1777898006 | 7.78° C | 51% | 1011.5 hPa | 0 mm | - | 25 W/m² | - |
| 1777897702 | 7.78° C | 50% | 1011.6 hPa | 0 mm | - | 20 W/m² | - |
| 1777897399 | 7.78° C | 51% | 1011.5 hPa | 0 mm | - | 15 W/m² | - |
* Rain latest hour (hover to see other rain measurements)
** Current wind speed in m/s (hover to see current wind gust speed)